Time,TemperatureF,DewpointF,PressureIn,WindDirection,WindDirectionDegrees,WindSpeedMPH,WindSpeedGustMPH,Humidity,HourlyPrecipIn,Conditions,Clouds,dailyrainin,SoftwareType,DateUTC
2013-01-20 00:02:00,25.0,20.0,30.24,ESE,121,0.0,1.0,80,0.00,,,0.00,,2013-01-20 06:02:00,
2013-01-20 00:12:00,25.0,20.0,30.24,ESE,121,0.0,1.0,80,0.00,,,0.00,,2013-01-20 06:12:00,
2013-01-20 00:22:00,25.0,20.0,30.24,ESE,121,0.0,1.0,80,0.00,,,0.00,,2013-01-20 06:22:00,
2013-01-20 00:33:00,26.0,21.0,30.23,ENE,74,0.0,0.0,80,0.00,,,0.00,,2013-01-20 06:33:00,
2013-01-20 00:43:00,26.0,21.0,30.23,ENE,74,0.0,0.0,80,0.00,,,0.00,,2013-01-20 06:43:00,
2013-01-20 00:53:00,26.0,21.0,30.23,ENE,74,0.0,1.0,80,0.00,,,0.00,,2013-01-20 06:53:00,
2013-01-20 01:02:00,26.0,21.0,30.22,ENE,74,0.0,1.0,80,0.00,,,0.00,,2013-01-20 07:02:00,
2013-01-20 01:12:00,26.0,21.0,30.22,ENE,74,0.0,1.0,80,0.00,,,0.00,,2013-01-20 07:12:00,
2013-01-20 01:22:00,26.0,21.0,30.22,ENE,74,0.0,2.0,81,0.00,,,0.00,,2013-01-20 07:22:00,
2013-01-20 01:32:00,25.0,20.0,30.22,ENE,74,0.0,0.0,81,0.00,,,0.00,,2013-01-20 07:32:00,
2013-01-20 01:42:00,25.0,20.0,30.22,ENE,74,0.0,0.0,81,0.00,,,0.00,,2013-01-20 07:42:00,
2013-01-20 01:52:00,24.0,19.0,30.22,ENE,74,0.0,1.0,81,0.00,,,0.00,,2013-01-20 07:52:00,
2013-01-20 02:02:00,24.0,19.0,30.22,ENE,74,0.0,2.0,82,0.00,,,0.00,,2013-01-20 08:02:00,
2013-01-20 02:12:00,24.0,19.0,30.22,ENE,74,0.0,2.0,82,0.00,,,0.00,,2013-01-20 08:12:00,
2013-01-20 02:22:00,24.0,20.0,30.21,NE,55,1.0,5.0,84,0.00,,,0.00,,2013-01-20 08:22:00,
2013-01-20 02:32:00,24.0,20.0,30.22,ENE,60,1.0,4.0,85,0.00,,,0.00,,2013-01-20 08:32:00,
2013-01-20 02:42:00,24.0,20.0,30.22,ENE,60,1.0,4.0,85,0.00,,,0.00,,2013-01-20 08:42:00,
2013-01-20 02:52:00,24.0,20.0,30.22,ENE,62,1.0,3.0,86,0.00,,,0.00,,2013-01-20 08:52:00,
2013-01-20 03:02:00,24.0,21.0,30.22,NE,34,1.0,4.0,87,0.00,,,0.00,,2013-01-20 09:02:00,
2013-01-20 03:12:00,24.0,21.0,30.22,NE,34,1.0,4.0,87,0.00,,,0.00,,2013-01-20 09:12:00,
2013-01-20 03:22:00,24.0,20.0,30.23,ENE,59,1.0,4.0,85,0.00,,,0.00,,2013-01-20 09:22:00,
2013-01-20 03:33:00,23.0,18.0,30.22,ENE,78,1.0,5.0,81,0.00,,,0.00,,2013-01-20 09:33:00,
2013-01-20 03:42:00,23.0,18.0,30.22,ENE,78,1.0,5.0,81,0.00,,,0.00,,2013-01-20 09:42:00,
2013-01-20 03:52:00,22.0,17.0,30.21,NNE,27,0.0,2.0,82,0.00,,,0.00,,2013-01-20 09:52:00,
2013-01-20 04:02:00,22.0,17.0,30.21,NNE,27,0.0,1.0,82,0.00,,,0.00,,2013-01-20 10:02:00,
2013-01-20 04:12:00,22.0,17.0,30.21,NNE,27,0.0,1.0,82,0.00,,,0.00,,2013-01-20 10:12:00,
2013-01-20 04:22:00,22.0,17.0,30.20,NNE,27,0.0,2.0,82,0.00,,,0.00,,2013-01-20 10:22:00,
2013-01-20 04:32:00,21.0,17.0,30.20,ENE,72,0.0,3.0,83,0.00,,,0.00,,2013-01-20 10:32:00,
2013-01-20 04:42:00,21.0,17.0,30.20,ENE,72,0.0,3.0,83,0.00,,,0.00,,2013-01-20 10:42:00,
2013-01-20 04:52:00,21.0,17.0,30.19,NE,49,0.0,3.0,83,0.00,,,0.00,,2013-01-20 10:52:00,
2013-01-20 05:02:00,21.0,17.0,30.19,NNE,24,0.0,1.0,83,0.00,,,0.00,,2013-01-20 11:02:00,
2013-01-20 05:12:00,21.0,17.0,30.19,NNE,24,0.0,1.0,83,0.00,,,0.00,,2013-01-20 11:12:00,
2013-01-20 05:22:00,20.0,16.0,30.18,NNE,24,0.0,0.0,84,0.00,,,0.00,,2013-01-20 11:22:00,
2013-01-20 05:33:00,20.0,16.0,30.18,NNE,24,0.0,0.0,84,0.00,,,0.00,,2013-01-20 11:33:00,
2013-01-20 05:42:00,20.0,16.0,30.18,NNE,24,0.0,0.0,84,0.00,,,0.00,,2013-01-20 11:42:00,
2013-01-20 05:53:00,19.0,15.0,30.17,NNE,24,0.0,0.0,83,0.00,,,0.00,,2013-01-20 11:53:00,
2013-01-20 06:03:00,19.0,15.0,30.19,NNE,24,0.0,2.0,84,0.00,,,0.00,,2013-01-20 12:03:00,
2013-01-20 06:12:00,19.0,15.0,30.19,NNE,24,0.0,2.0,84,0.00,,,0.00,,2013-01-20 12:12:00,
2013-01-20 06:23:00,18.0,14.0,30.19,NNE,24,0.0,0.0,84,0.00,,,0.00,,2013-01-20 12:23:00,
2013-01-20 06:33:00,18.0,14.0,30.19,NNE,24,0.0,0.0,85,0.00,,,0.00,,2013-01-20 12:33:00,
2013-01-20 06:43:00,18.0,14.0,30.19,NNE,24,0.0,0.0,85,0.00,,,0.00,,2013-01-20 12:43:00,
2013-01-20 06:52:00,17.0,13.0,30.19,NNE,24,0.0,0.0,85,0.00,,,0.00,,2013-01-20 12:52:00,
2013-01-20 07:03:00,17.0,14.0,30.19,NNE,24,0.0,0.0,86,0.00,,,0.00,,2013-01-20 13:03:00,
2013-01-20 07:12:00,17.0,14.0,30.19,NNE,24,0.0,0.0,86,0.00,,,0.00,,2013-01-20 13:12:00,
2013-01-20 07:23:00,17.0,13.0,30.19,NNE,24,0.0,0.0,85,0.00,,,0.00,,2013-01-20 13:23:00,
2013-01-20 07:33:00,17.0,13.0,30.19,NNE,24,0.0,2.0,85,0.00,,,0.00,,2013-01-20 13:33:00,
2013-01-20 07:43:00,17.0,13.0,30.19,NNE,24,0.0,2.0,85,0.00,,,0.00,,2013-01-20 13:43:00,
2013-01-20 07:52:00,18.0,15.0,30.19,ESE,115,0.0,2.0,88,0.00,,,0.00,,2013-01-20 13:52:00,
2013-01-20 08:02:00,20.0,17.0,30.19,ESE,115,0.0,2.0,88,0.00,,,0.00,,2013-01-20 14:02:00,
2013-01-20 08:12:00,20.0,17.0,30.19,ESE,115,0.0,2.0,88,0.00,,,0.00,,2013-01-20 14:12:00,
2013-01-20 08:23:00,20.0,17.0,30.19,NE,50,0.0,1.0,87,0.00,,,0.00,,2013-01-20 14:23:00,
2013-01-20 08:33:00,20.0,17.0,30.19,NE,50,0.0,1.0,88,0.00,,,0.00,,2013-01-20 14:33:00,
2013-01-20 08:43:00,20.0,17.0,30.19,NE,50,0.0,1.0,88,0.00,,,0.00,,2013-01-20 14:43:00,
2013-01-20 08:53:00,21.0,18.0,30.20,NE,50,0.0,1.0,88,0.00,,,0.00,,2013-01-20 14:53:00,
2013-01-20 09:03:00,21.0,18.0,30.21,NE,50,0.0,2.0,88,0.00,,,0.00,,2013-01-20 15:03:00,
2013-01-20 09:12:00,21.0,18.0,30.21,NE,50,0.0,2.0,88,0.00,,,0.00,,2013-01-20 15:12:00,
2013-01-20 09:23:00,22.0,19.0,30.21,NE,50,0.0,2.0,88,0.00,,,0.00,,2013-01-20 15:23:00,
2013-01-20 09:33:00,23.0,20.0,30.21,SSE,155,1.0,6.0,89,0.00,,,0.00,,2013-01-20 15:33:00,
2013-01-20 09:42:00,23.0,20.0,30.21,SSE,155,1.0,6.0,89,0.00,,,0.00,,2013-01-20 15:42:00,
2013-01-20 09:52:00,24.0,21.0,30.22,SSW,208,0.0,3.0,88,0.00,,,0.00,,2013-01-20 15:52:00,
2013-01-20 10:03:00,24.0,21.0,30.23,South,172,0.0,2.0,88,0.00,,,0.00,,2013-01-20 16:03:00,
2013-01-20 10:12:00,24.0,21.0,30.23,South,172,0.0,2.0,88,0.00,,,0.00,,2013-01-20 16:12:00,
2013-01-20 10:23:00,25.0,22.0,30.23,South,172,0.0,2.0,88,0.00,,,0.00,,2013-01-20 16:23:00,
2013-01-20 10:33:00,26.0,23.0,30.24,SSW,197,0.0,2.0,87,0.00,,,0.00,,2013-01-20 16:33:00,
2013-01-20 10:43:00,26.0,23.0,30.24,SSW,197,0.0,2.0,87,0.00,,,0.00,,2013-01-20 16:43:00,
2013-01-20 10:52:00,26.0,23.0,30.24,South,190,1.0,4.0,87,0.00,,,0.00,,2013-01-20 16:52:00,
2013-01-20 11:03:00,27.0,24.0,30.26,South,186,2.0,8.0,87,0.00,,,0.00,,2013-01-20 17:03:00,
2013-01-20 11:12:00,27.0,24.0,30.26,South,186,2.0,8.0,87,0.00,,,0.00,,2013-01-20 17:12:00,
2013-01-20 11:22:00,28.0,25.0,30.27,SW,219,0.0,3.0,87,0.00,,,0.00,,2013-01-20 17:22:00,
2013-01-20 11:33:00,29.0,25.0,30.27,WSW,247,3.0,7.0,85,0.00,,,0.00,,2013-01-20 17:33:00,
2013-01-20 11:42:00,29.0,25.0,30.27,WSW,247,3.0,7.0,85,0.00,,,0.00,,2013-01-20 17:42:00,
2013-01-20 11:52:00,31.0,26.0,30.27,SSW,198,3.0,7.0,82,0.00,,,0.00,,2013-01-20 17:52:00,
2013-01-20 12:03:00,32.0,26.0,30.26,SW,234,3.0,7.0,79,0.00,,,0.00,,2013-01-20 18:03:00,
2013-01-20 12:13:00,32.0,26.0,30.26,SW,234,3.0,7.0,79,0.00,,,0.00,,2013-01-20 18:13:00,
2013-01-20 12:23:00,33.0,26.0,30.26,WSW,251,3.0,8.0,76,0.00,,,0.00,,2013-01-20 18:23:00,
2013-01-20 12:33:00,34.0,26.0,30.25,SW,235,4.0,8.0,72,0.00,,,0.00,,2013-01-20 18:33:00,
2013-01-20 12:43:00,34.0,26.0,30.25,SW,235,4.0,8.0,72,0.00,,,0.00,,2013-01-20 18:43:00,
2013-01-20 12:53:00,34.0,26.0,30.25,SW,235,4.0,8.0,72,0.00,,,0.00,,2013-01-20 18:53:00,
2013-01-20 13:02:00,36.0,25.0,30.26,WSW,246,4.0,11.0,63,0.00,,,0.00,,2013-01-20 19:02:00,
2013-01-20 13:12:00,36.0,25.0,30.26,WSW,246,4.0,11.0,63,0.00,,,0.00,,2013-01-20 19:12:00,
2013-01-20 13:22:00,35.0,23.0,30.25,WSW,249,4.0,10.0,62,0.00,,,0.00,,2013-01-20 19:22:00,
2013-01-20 13:33:00,35.0,23.0,30.25,WSW,249,4.0,10.0,62,0.00,,,0.00,,2013-01-20 19:33:00,
2013-01-20 13:43:00,35.0,23.0,30.25,WSW,249,4.0,10.0,62,0.00,,,0.00,,2013-01-20 19:43:00,
2013-01-20 13:52:00,34.0,22.0,30.28,WSW,244,4.0,10.0,62,0.00,,,0.00,,2013-01-20 19:52:00,
2013-01-20 14:03:00,33.0,21.0,30.28,WSW,257,4.0,12.0,61,0.00,,,0.00,,2013-01-20 20:03:00,
2013-01-20 14:12:00,33.0,21.0,30.28,WSW,257,4.0,12.0,61,0.00,,,0.00,,2013-01-20 20:12:00,
2013-01-20 14:23:00,31.0,20.0,30.29,NW,313,4.0,10.0,62,0.00,,,0.00,,2013-01-20 20:23:00,
2013-01-20 14:33:00,30.0,19.0,30.29,ESE,105,3.0,10.0,64,0.00,,,0.00,,2013-01-20 20:33:00,
2013-01-20 14:42:00,30.0,19.0,30.29,ESE,105,3.0,10.0,64,0.00,,,0.00,,2013-01-20 20:42:00,
2013-01-20 14:53:00,28.0,18.0,30.30,ENE,67,4.0,11.0,65,0.00,,,0.00,,2013-01-20 20:53:00,
2013-01-20 15:03:00,27.0,17.0,30.30,SW,224,3.0,9.0,66,0.00,,,0.00,,2013-01-20 21:03:00,
2013-01-20 15:13:00,27.0,17.0,30.30,SW,224,3.0,9.0,66,0.00,,,0.00,,2013-01-20 21:13:00,
2013-01-20 15:23:00,27.0,17.0,30.32,WNW,291,2.0,8.0,65,0.00,,,0.00,,2013-01-20 21:23:00,
2013-01-20 15:33:00,27.0,16.0,30.33,ENE,60,4.0,13.0,64,0.00,,,0.00,,2013-01-20 21:33:00,
2013-01-20 15:43:00,27.0,16.0,30.33,ENE,60,4.0,13.0,64,0.00,,,0.00,,2013-01-20 21:43:00,
2013-01-20 15:53:00,27.0,16.0,30.33,ENE,60,4.0,13.0,64,0.00,,,0.00,,2013-01-20 21:53:00,
2013-01-20 16:03:00,26.0,16.0,30.35,NNW,335,2.0,7.0,65,0.00,,,0.00,,2013-01-20 22:03:00,
2013-01-20 16:13:00,26.0,16.0,30.35,NNW,335,2.0,7.0,65,0.00,,,0.00,,2013-01-20 22:13:00,
2013-01-20 16:23:00,25.0,15.0,30.36,ENE,65,2.0,7.0,65,0.00,,,0.00,,2013-01-20 22:23:00,
2013-01-20 16:33:00,25.0,15.0,30.35,WSW,240,2.0,7.0,65,0.00,,,0.00,,2013-01-20 22:33:00,
2013-01-20 16:43:00,25.0,15.0,30.35,WSW,240,2.0,7.0,65,0.00,,,0.00,,2013-01-20 22:43:00,
2013-01-20 16:52:00,25.0,14.0,30.35,NNE,25,2.0,6.0,62,0.00,,,0.00,,2013-01-20 22:52:00,
2013-01-20 17:03:00,25.0,14.0,30.35,East,84,1.0,7.0,62,0.00,,,0.00,,2013-01-20 23:03:00,
2013-01-20 17:13:00,25.0,14.0,30.35,East,84,1.0,7.0,62,0.00,,,0.00,,2013-01-20 23:13:00,
2013-01-20 17:23:00,25.0,14.0,30.35,SW,228,1.0,3.0,62,0.00,,,0.00,,2013-01-20 23:23:00,
2013-01-20 17:33:00,24.0,13.0,30.36,NE,35,1.0,4.0,62,0.00,,,0.00,,2013-01-20 23:33:00,
2013-01-20 17:43:00,24.0,13.0,30.36,NE,35,1.0,4.0,62,0.00,,,0.00,,2013-01-20 23:43:00,
2013-01-20 17:53:00,24.0,14.0,30.35,NNE,20,2.0,6.0,64,0.00,,,0.00,,2013-01-20 23:53:00,
2013-01-20 18:03:00,24.0,14.0,30.35,NNE,20,2.0,6.0,64,0.00,,,0.00,,2013-01-21 00:03:00,
2013-01-20 18:13:00,24.0,14.0,30.35,NNE,20,2.0,6.0,64,0.00,,,0.00,,2013-01-21 00:13:00,
2013-01-20 18:23:00,22.0,12.0,30.35,NNE,32,1.0,3.0,66,0.00,,,0.00,,2013-01-21 00:23:00,
2013-01-20 18:33:00,21.0,11.0,30.36,NNE,32,0.0,0.0,66,0.00,,,0.00,,2013-01-21 00:33:00,
2013-01-20 18:43:00,21.0,11.0,30.36,NNE,32,0.0,0.0,66,0.00,,,0.00,,2013-01-21 00:43:00,
2013-01-20 18:53:00,21.0,12.0,30.37,NNE,32,0.0,0.0,68,0.00,,,0.00,,2013-01-21 00:53:00,
2013-01-20 19:03:00,20.0,12.0,30.37,NNE,32,0.0,0.0,70,0.00,,,0.00,,2013-01-21 01:03:00,
2013-01-20 19:13:00,20.0,12.0,30.37,NNE,32,0.0,0.0,70,0.00,,,0.00,,2013-01-21 01:13:00,
2013-01-20 19:23:00,19.0,11.0,30.38,NNE,32,0.0,0.0,71,0.00,,,0.00,,2013-01-21 01:23:00,
2013-01-20 19:33:00,19.0,12.0,30.38,NNE,32,0.0,0.0,74,0.00,,,0.00,,2013-01-21 01:33:00,
2013-01-20 19:43:00,19.0,12.0,30.38,NNE,32,0.0,0.0,74,0.00,,,0.00,,2013-01-21 01:43:00,
2013-01-20 19:52:00,18.0,11.0,30.38,NNE,32,0.0,0.0,75,0.00,,,0.00,,2013-01-21 01:52:00,
2013-01-20 20:03:00,18.0,11.0,30.38,NNE,32,0.0,0.0,75,0.00,,,0.00,,2013-01-21 02:03:00,
2013-01-20 20:12:00,18.0,11.0,30.38,NNE,32,0.0,0.0,75,0.00,,,0.00,,2013-01-21 02:12:00,
2013-01-20 20:23:00,18.0,12.0,30.38,NNE,32,0.0,0.0,77,0.00,,,0.00,,2013-01-21 02:23:00,
2013-01-20 20:33:00,17.0,11.0,30.38,NNE,32,0.0,0.0,77,0.00,,,0.00,,2013-01-21 02:33:00,
2013-01-20 20:43:00,17.0,11.0,30.38,NNE,32,0.0,0.0,77,0.00,,,0.00,,2013-01-21 02:43:00,
2013-01-20 20:53:00,17.0,11.0,30.38,NNE,32,0.0,0.0,76,0.00,,,0.00,,2013-01-21 02:53:00,
2013-01-20 21:03:00,16.0,10.0,30.39,NNE,32,0.0,1.0,76,0.00,,,0.00,,2013-01-21 03:03:00,
2013-01-20 21:13:00,16.0,10.0,30.39,NNE,32,0.0,1.0,76,0.00,,,0.00,,2013-01-21 03:13:00,
2013-01-20 21:23:00,16.0,10.0,30.40,NNE,32,0.0,1.0,77,0.00,,,0.00,,2013-01-21 03:23:00,
2013-01-20 21:33:00,15.0,9.0,30.41,NNE,32,0.0,0.0,78,0.00,,,0.00,,2013-01-21 03:33:00,
2013-01-20 21:43:00,15.0,9.0,30.41,NNE,32,0.0,0.0,78,0.00,,,0.00,,2013-01-21 03:43:00,
2013-01-20 21:52:00,15.0,9.0,30.42,NNE,32,0.0,0.0,78,0.00,,,0.00,,2013-01-21 03:52:00,
2013-01-20 22:03:00,15.0,10.0,30.43,NNE,32,0.0,2.0,79,0.00,,,0.00,,2013-01-21 04:03:00,
2013-01-20 22:12:00,15.0,10.0,30.43,NNE,32,0.0,2.0,79,0.00,,,0.00,,2013-01-21 04:12:00,
2013-01-20 22:23:00,15.0,10.0,30.43,NNE,32,0.0,1.0,79,0.00,,,0.00,,2013-01-21 04:23:00,
2013-01-20 22:33:00,16.0,11.0,30.43,NNE,32,0.0,0.0,79,0.00,,,0.00,,2013-01-21 04:33:00,
2013-01-20 22:43:00,16.0,11.0,30.43,NNE,32,0.0,0.0,79,0.00,,,0.00,,2013-01-21 04:43:00,
2013-01-20 22:53:00,17.0,12.0,30.43,NNE,32,0.0,1.0,79,0.00,,,0.00,,2013-01-21 04:53:00,
2013-01-20 23:03:00,17.0,12.0,30.43,NNE,24,0.0,2.0,79,0.00,,,0.00,,2013-01-21 05:03:00,
2013-01-20 23:12:00,17.0,12.0,30.43,NNE,24,0.0,2.0,79,0.00,,,0.00,,2013-01-21 05:12:00,
2013-01-20 23:22:00,18.0,12.0,30.43,NNE,24,0.0,1.0,78,0.00,,,0.00,,2013-01-21 05:22:00,
2013-01-20 23:34:00,19.0,13.0,30.42,NNE,24,0.0,2.0,77,0.00,,,0.00,,2013-01-21 05:34:00,
2013-01-20 23:42:00,19.0,13.0,30.42,NNE,24,0.0,2.0,77,0.00,,,0.00,,2013-01-21 05:42:00,
2013-01-20 23:52:00,19.0,13.0,30.42,NNE,24,0.0,2.0,76,0.00,,,0.00,,2013-01-21 05:52:00,